Flag for U.S.A. Weather past 2 weeks in Santa Barbara, California, U.S.A.

Now
73 °F

Partly sunny.


Feels Like: 77 °F
Forecast: 58 / 72 °F
Wind: 5 mph from Southwest

Location: Santa Barbara Municipal Airport

Current Time: Oct 21, 2014 at 12:06:27 PM

Latest Report: Oct 21, 2014 at 10:53 AM


Visibility: 10 mi

Pressure: 29.92 "Hg

Humidity: 57%

Dew point: 57 °F

Location of Santa BarbaraLocation

Historic Weather in Santa Barbara — Graph

°F

Santa Barbara temperature yesterday

Maximum temperature yesterday: 73 °F (at 1:53 PM)
Minimum temperature yesterday: 55 °F (at 6:53 AM)
Average temperature yesterday: 66 °F

Past Weeks' High & Low Weather Summary

 TemperatureHumidityPressure
High80 °F (Oct 6, 3:53 PM)97% (Oct 12, 4:53 AM)30.01 "Hg (Oct 12, 4:53 AM)
Low53 °F (Oct 18, 6:53 AM)47% (Oct 6, 3:53 PM)29.78 "Hg (Oct 8, 4:53 PM)
Average67 °F75%29.91 "Hg
* Reported Oct 6 10:53 AM — Oct 21 10:53 AM, Santa Barbara, Weather by CustomWeather, © 2014

Note: Actual official high and low records may vary slightly from our data, if they occured in-between our weather recording intervals... More about our weather records

Advertising

Santa Barbara weather history for previous 24 hours

 ConditionsComfort  
Time TempWeatherWind HumidityBarometerVisibility
10:53 AM
Oct 21
73 °FPartly sunny.5 mph57%29.92 "Hg10 mi
9:53 AM72 °FSunny.No wind61%29.92 "Hg10 mi
8:53 AM67 °FSunny.No wind71%29.92 "Hg10 mi
7:53 AM56 °FClear.No wind90%29.91 "Hg10 mi
6:53 AM54 °FPassing clouds.No wind90%29.89 "Hg10 mi
5:53 AM55 °FPassing clouds.No wind90%29.88 "Hg10 mi
4:53 AM59 °FClear.No wind90%29.87 "Hg7 mi
3:53 AM62 °FClear.6 mph90%29.87 "Hg9 mi
2:53 AM62 °FClear.3 mph90%29.87 "Hg10 mi
1:53 AM67 °FClear.7 mph68%29.88 "Hg10 mi
12:53 AM66 °FClear.5 mph75%29.88 "Hg10 mi
11:53 PM
Oct 20
61 °FClear.No wind78%29.88 "Hg10 mi
10:53 PM65 °FClear.No wind73%29.88 "Hg10 mi
9:53 PM67 °FClear.No wind73%29.88 "Hg10 mi
8:53 PM67 °FClear.3 mph73%29.87 "Hg10 mi
7:53 PM68 °FClear.3 mph82%29.86 "Hg10 mi
6:53 PM69 °FPassing clouds.5 mph76%29.86 "Hg10 mi
5:53 PM72 °FSunny.5 mph66%29.85 "Hg10 mi
4:53 PM73 °FSunny.6 mph59%29.85 "Hg10 mi
3:53 PM73 °FPassing clouds.6 mph64%29.87 "Hg10 mi
2:53 PM73 °FPassing clouds.7 mph64%29.88 "Hg10 mi
1:53 PM73 °FSunny.10 mph66%29.89 "Hg10 mi
12:53 PM72 °FScattered clouds.7 mph68%29.90 "Hg10 mi
Weather by CustomWeather, © 2014

See weather overviewHow to use our weather pages